| time (UTC) | temp F | wind direction | speed MPH | gust MPH | rain 1hr in | rain 24hr in | rain mn in | humidity % | barometer mb |
| 20260831022019 | 78 | 192 | 4.0 | 11.0 | 0.00 | 0.00 | 0.00 | 76 | 1009.2 |
| 20260831021544 | 78 | 178 | 4.0 | 11.0 | 0.00 | 0.00 | 0.00 | 75 | 1009.2 |
| 20260831021023 | 78 | 177 | 4.0 | 11.0 | 0.00 | 0.00 | 0.00 | 75 | 1009.2 |
| 20260831020519 | 78 | 144 | 2.0 | 13.0 | 0.00 | 0.00 | 0.00 | 75 | 1009.2 |
| 20260831020048 | 78 | 168 | 4.0 | 14.0 | 0.00 | 0.00 | 0.00 | 75 | 1009.2 |
| 20260831015520 | 78 | 163 | 7.0 | 14.0 | 0.00 | 0.00 | 0.00 | 75 | 1009.2 |
| 20260831015023 | 78 | 171 | 3.0 | 14.0 | 0.00 | 0.00 | 0.00 | 75 | 1009.0 |
| 20260831014538 | 78 | 183 | 3.0 | 14.0 | 0.00 | 0.00 | 0.00 | 75 | 1009.0 |
| 20260831014024 | 79 | 230 | 4.0 | 13.0 | 0.00 | 0.00 | 0.00 | 76 | 1009.0 |
| 20260831013524 | 79 | 140 | 2.0 | 7.0 | 0.00 | 0.00 | 0.00 | 76 | 1008.9 |
| 20260831013043 | 79 | 162 | 2.0 | 7.0 | 0.00 | 0.00 | 0.00 | 76 | 1008.8 |
| 20260831012527 | 79 | 0 | 1.0 | 9.0 | 0.00 | 0.00 | 0.00 | 76 | 1008.7 |
| 20260831012024 | 79 | 0 | 3.0 | 11.0 | 0.00 | 0.00 | 0.00 | 76 | 1008.6 |
| 20260831011545 | 79 | 226 | 4.0 | 11.0 | 0.00 | 0.00 | 0.00 | 75 | 1008.6 |
| 20260831011018 | 80 | 0 | 2.0 | 7.0 | 0.00 | 0.00 | 0.00 | 76 | 1008.7 |
| 20260831010519 | 80 | 178 | 1.0 | 6.0 | 0.00 | 0.00 | 0.00 | 77 | 1008.6 |
| 20260831010044 | 80 | 153 | 2.0 | 6.0 | 0.00 | 0.00 | 0.00 | 77 | 1008.6 |
| 20260831005521 | 80 | 0 | 1.0 | 5.0 | 0.00 | 0.00 | 0.00 | 76 | 1008.6 |
| 20260831005020 | 80 | 0 | 0.0 | 3.0 | 0.00 | 0.00 | 0.00 | 76 | 1008.5 |
| 20260831004542 | 80 | 0 | 0.0 | 3.0 | 0.00 | 0.00 | 0.00 | 76 | 1008.5 |
| 20260831004028 | 81 | 0 | 0.0 | 3.0 | 0.00 | 0.00 | 0.00 | 76 | 1008.3 |
| 20260831003527 | 81 | 0 | 0.0 | 6.0 | 0.00 | 0.00 | 0.00 | 76 | 1008.2 |
| 20260831003045 | 81 | 0 | 0.0 | 6.0 | 0.00 | 0.00 | 0.00 | 75 | 1008.1 |
| 20260831002519 | 81 | 187 | 1.0 | 6.0 | 0.00 | 0.00 | 0.00 | 74 | 1008.1 |
| 20260831002023 | 81 | 163 | 2.0 | 6.0 | 0.00 | 0.00 | 0.00 | 74 | 1008.2 |
| 20260831001540 | 81 | 186 | 2.0 | 7.0 | 0.00 | 0.00 | 0.00 | 74 | 1008.2 |
| 20260831001023 | 81 | 0 | 0.0 | 7.0 | 0.00 | 0.00 | 0.00 | 76 | 1008.0 |
| 20260831000523 | 81 | 184 | 2.0 | 7.0 | 0.00 | 0.00 | 0.00 | 75 | 1008.1 |
| 20260831000044 | 82 | 188 | 1.0 | 6.0 | 0.00 | 0.00 | 0.00 | 76 | 1008.2 |
| 20260830235519 | 82 | 111 | 0.0 | 6.0 | 0.00 | 0.00 | 0.00 | 77 | 1008.2 |
| 20260830235018 | 82 | 0 | 0.0 | 6.0 | 0.00 | 0.00 | 0.00 | 78 | 1008.2 |
| 20260830234547 | 82 | 0 | 0.0 | 4.0 | 0.00 | 0.00 | 0.00 | 78 | 1008.2 |
| 20260830234021 | 82 | 0 | 1.0 | 6.0 | 0.00 | 0.00 | 0.00 | 78 | 1008.1 |
| 20260830233519 | 82 | 86 | 3.0 | 6.0 | 0.00 | 0.00 | 0.00 | 78 | 1008.1 |
| 20260830233039 | 82 | 81 | 3.0 | 6.0 | 0.00 | 0.00 | 0.00 | 78 | 1008.0 |
| 20260830232525 | 82 | 86 | 3.0 | 7.0 | 0.00 | 0.00 | 0.00 | 77 | 1008.1 |
| 20260830232024 | 82 | 82 | 2.0 | 7.0 | 0.00 | 0.00 | 0.00 | 77 | 1008.2 |
| 20260830231547 | 82 | 80 | 3.0 | 7.0 | 0.00 | 0.00 | 0.00 | 77 | 1008.2 |
| 20260830231024 | 83 | 81 | 3.0 | 8.0 | 0.00 | 0.00 | 0.00 | 77 | 1008.2 |
| 20260830230521 | 82 | 86 | 3.0 | 9.0 | 0.00 | 0.00 | 0.00 | 77 | 1008.1 |
| 20260830230043 | 83 | 76 | 6.0 | 9.0 | 0.00 | 0.00 | 0.00 | 76 | 1008.0 |
| 20260830225518 | 83 | 82 | 3.0 | 7.0 | 0.00 | 0.00 | 0.00 | 77 | 1008.0 |
| 20260830225020 | 83 | 86 | 3.0 | 8.0 | 0.00 | 0.00 | 0.00 | 76 | 1008.0 |
| 20260830224541 | 83 | 79 | 4.0 | 8.0 | 0.00 | 0.00 | 0.00 | 76 | 1008.0 |
| 20260830224019 | 83 | 80 | 3.0 | 7.0 | 0.00 | 0.00 | 0.00 | 76 | 1007.9 |
| 20260830223519 | 83 | 79 | 4.0 | 9.0 | 0.00 | 0.00 | 0.00 | 76 | 1007.9 |
| 20260830223051 | 83 | 80 | 3.0 | 9.0 | 0.00 | 0.00 | 0.00 | 76 | 1007.9 |
| 20260830222519 | 83 | 79 | 6.0 | 9.0 | 0.00 | 0.00 | 0.00 | 75 | 1007.8 |
| 20260830222019 | 83 | 74 | 5.0 | 8.0 | 0.00 | 0.00 | 0.00 | 75 | 1007.8 |
| 20260830221546 | 83 | 81 | 5.0 | 8.0 | 0.00 | 0.00 | 0.00 | 75 | 1007.8 |
| 20260830221018 | 83 | 99 | 1.0 | 7.0 | 0.00 | 0.00 | 0.00 | 76 | 1007.9 |
| 20260830220518 | 83 | 91 | 2.0 | 7.0 | 0.00 | 0.00 | 0.00 | 75 | 1007.9 |
| 20260830220044 | 83 | 98 | 1.0 | 6.0 | 0.00 | 0.00 | 0.00 | 74 | 1008.0 |
| 20260830215522 | 84 | 194 | 1.0 | 5.0 | 0.00 | 0.00 | 0.00 | 75 | 1007.9 |
| 20260830215020 | 84 | 0 | 1.0 | 5.0 | 0.00 | 0.00 | 0.00 | 75 | 1008.0 |
| 20260830214540 | 84 | 165 | 2.0 | 6.0 | 0.00 | 0.00 | 0.00 | 75 | 1008.0 |
| 20260830214021 | 84 | 121 | 0.0 | 6.0 | 0.00 | 0.00 | 0.00 | 75 | 1008.0 |
| 20260830213521 | 84 | 93 | 3.0 | 7.0 | 0.00 | 0.00 | 0.00 | 75 | 1008.0 |
| 20260830213041 | 83 | 140 | 1.0 | 8.0 | 0.00 | 0.00 | 0.00 | 76 | 1008.1 |
| 20260830212519 | 83 | 161 | 2.0 | 8.0 | 0.00 | 0.00 | 0.00 | 77 | 1008.1 |
| 20260830212018 | 83 | 127 | 1.0 | 7.0 | 0.00 | 0.00 | 0.00 | 75 | 1008.2 |
| 20260830211542 | 83 | 183 | 2.0 | 7.0 | 0.00 | 0.00 | 0.00 | 75 | 1008.2 |
| 20260830211021 | 83 | 101 | 2.0 | 7.0 | 0.00 | 0.00 | 0.00 | 75 | 1008.3 |
| 20260830210520 | 83 | 188 | 2.0 | 7.0 | 0.00 | 0.00 | 0.00 | 76 | 1008.3 |
| 20260830210040 | 83 | 85 | 2.0 | 8.0 | 0.00 | 0.00 | 0.00 | 76 | 1008.3 |
| 20260830205518 | 83 | 76 | 2.0 | 8.0 | 0.00 | 0.00 | 0.00 | 77 | 1008.3 |
| 20260830205018 | 83 | 0 | 3.0 | 8.0 | 0.00 | 0.00 | 0.00 | 76 | 1008.5 |
| 20260830204549 | 83 | 86 | 3.0 | 7.0 | 0.00 | 0.00 | 0.00 | 77 | 1008.7 |
| 20260830204019 | 82 | 80 | 2.0 | 7.0 | 0.00 | 0.00 | 0.00 | 77 | 1008.7 |
| 20260830203518 | 82 | 74 | 1.0 | 8.0 | 0.00 | 0.00 | 0.00 | 79 | 1008.6 |
| 20260830203037 | 82 | 74 | 3.0 | 10.0 | 0.00 | 0.00 | 0.00 | 76 | 1008.7 |
| 20260830202523 | 82 | 80 | 5.0 | 10.0 | 0.00 | 0.00 | 0.00 | 75 | 1008.7 |
| 20260830202025 | 82 | 82 | 5.0 | 9.0 | 0.00 | 0.00 | 0.00 | 75 | 1008.5 |
| 20260830201540 | 82 | 78 | 5.0 | 9.0 | 0.00 | 0.00 | 0.00 | 75 | 1008.4 |
| 20260830201019 | 82 | 78 | 6.0 | 10.0 | 0.00 | 0.00 | 0.00 | 75 | 1008.4 |
| 20260830200519 | 82 | 65 | 5.0 | 10.0 | 0.00 | 0.00 | 0.00 | 75 | 1008.5 |
| 20260830200046 | 82 | 80 | 6.0 | 10.0 | 0.00 | 0.00 | 0.00 | 75 | 1008.4 |
| 20260830195520 | 82 | 74 | 5.0 | 10.0 | 0.00 | 0.00 | 0.00 | 75 | 1008.5 |
| 20260830195020 | 82 | 81 | 3.0 | 14.0 | 0.00 | 0.00 | 0.00 | 78 | 1008.3 |
| 20260830194539 | 82 | 82 | 5.0 | 14.0 | 0.00 | 0.00 | 0.00 | 75 | 1008.3 |
| 20260830194020 | 82 | 62 | 5.0 | 10.0 | 0.00 | 0.00 | 0.00 | 74 | 1008.3 |
| 20260830193519 | 82 | 50 | 5.0 | 11.0 | 0.00 | 0.00 | 0.00 | 74 | 1008.5 |
| 20260830193041 | 82 | 87 | 5.0 | 11.0 | 0.00 | 0.00 | 0.00 | 74 | 1008.7 |
| 20260830192525 | 82 | 77 | 7.0 | 10.0 | 0.00 | 0.00 | 0.00 | 74 | 1008.6 |
| 20260830192025 | 82 | 76 | 8.0 | 10.0 | 0.00 | 0.00 | 0.00 | 75 | 1008.7 |
| 20260830191542 | 82 | 80 | 5.0 | 9.0 | 0.00 | 0.00 | 0.00 | 75 | 1008.9 |
| 20260830191025 | 82 | 83 | 6.0 | 11.0 | 0.00 | 0.00 | 0.00 | 76 | 1009.1 |
| 20260830190526 | 82 | 79 | 4.0 | 12.0 | 0.00 | 0.00 | 0.00 | 77 | 1009.2 |
| 20260830190045 | 81 | 88 | 8.0 | 12.0 | 0.00 | 0.00 | 0.00 | 75 | 1009.3 |
| 20260830185526 | 81 | 92 | 6.0 | 10.0 | 0.00 | 0.00 | 0.00 | 77 | 1009.2 |
| 20260830185026 | 81 | 88 | 4.0 | 10.0 | 0.00 | 0.00 | 0.00 | 77 | 1009.2 |
| 20260830184545 | 81 | 79 | 6.0 | 10.0 | 0.00 | 0.00 | 0.00 | 77 | 1009.3 |
| 20260830184024 | 81 | 85 | 4.0 | 10.0 | 0.00 | 0.00 | 0.00 | 78 | 1009.4 |
| 20260830183523 | 80 | 80 | 6.0 | 10.0 | 0.00 | 0.00 | 0.00 | 79 | 1009.5 |
| 20260830183051 | 80 | 82 | 3.0 | 6.0 | 0.00 | 0.00 | 0.00 | 79 | 1009.5 |
| 20260830182520 | 80 | 80 | 3.0 | 10.0 | 0.00 | 0.00 | 0.00 | 80 | 1009.6 |
| 20260830182019 | 80 | 78 | 5.0 | 10.0 | 0.00 | 0.00 | 0.00 | 79 | 1009.5 |
| 20260830181543 | 80 | 76 | 5.0 | 9.0 | 0.00 | 0.00 | 0.00 | 79 | 1009.8 |
| 20260830181024 | 79 | 84 | 3.0 | 6.0 | 0.00 | 0.00 | 0.00 | 79 | 1010.0 |
| 20260830180523 | 79 | 98 | 0.0 | 4.0 | 0.00 | 0.00 | 0.00 | 80 | 1010.0 |
| 20260830180045 | 79 | 0 | 1.0 | 4.0 | 0.00 | 0.00 | 0.00 | 79 | 1010.0 |
| 20260830175521 | 79 | 182 | 1.0 | 5.0 | 0.00 | 0.00 | 0.00 | 79 | 1010.0 |
| 20260830175019 | 79 | 0 | 2.0 | 5.0 | 0.00 | 0.00 | 0.00 | 78 | 1010.2 |
| 20260830174554 | 80 | 0 | 2.0 | 6.0 | 0.00 | 0.00 | 0.00 | 78 | 1010.3 |
| 20260830174021 | 80 | 132 | 0.0 | 6.0 | 0.00 | 0.00 | 0.00 | 79 | 1010.2 |
| 20260830173523 | 80 | 109 | 1.0 | 5.0 | 0.00 | 0.00 | 0.00 | 79 | 1010.1 |
| 20260830173039 | 80 | 0 | 0.0 | 3.0 | 0.00 | 0.00 | 0.00 | 79 | 1009.9 |
| 20260830172523 | 79 | 0 | 1.0 | 3.0 | 0.00 | 0.00 | 0.00 | 79 | 1009.9 |
| 20260830172023 | 80 | 0 | 0.0 | 3.0 | 0.00 | 0.00 | 0.00 | 79 | 1009.9 |
| 20260830171542 | 80 | 102 | 1.0 | 6.0 | 0.00 | 0.00 | 0.00 | 79 | 1009.8 |
| 20260830171023 | 80 | 0 | 1.0 | 6.0 | 0.00 | 0.00 | 0.00 | 79 | 1009.7 |
| 20260830170523 | 80 | 80 | 3.0 | 6.0 | 0.00 | 0.00 | 0.00 | 78 | 1009.8 |
| 20260830170042 | 80 | 80 | 3.0 | 9.0 | 0.00 | 0.00 | 0.00 | 77 | 1009.8 |
| 20260830165519 | 80 | 84 | 3.0 | 10.0 | 0.00 | 0.00 | 0.00 | 76 | 1009.7 |
| 20260830165024 | 81 | 76 | 6.0 | 10.0 | 0.00 | 0.00 | 0.00 | 75 | 1009.6 |
| 20260830164538 | 81 | 78 | 3.0 | 11.0 | 0.00 | 0.00 | 0.00 | 75 | 1009.7 |
| 20260830164023 | 81 | 81 | 6.0 | 11.0 | 0.00 | 0.00 | 0.00 | 74 | 1009.5 |
| 20260830163524 | 81 | 76 | 6.0 | 9.0 | 0.00 | 0.00 | 0.00 | 75 | 1009.4 |
| 20260830163038 | 81 | 68 | 3.0 | 9.0 | 0.00 | 0.00 | 0.00 | 75 | 1009.5 |
| 20260830162518 | 81 | 80 | 4.0 | 9.0 | 0.00 | 0.00 | 0.00 | 76 | 1009.7 |
| 20260830162022 | 81 | 73 | 4.0 | 15.0 | 0.00 | 0.00 | 0.00 | 76 | 1009.6 |
| 20260830161549 | 81 | 60 | 8.0 | 15.0 | 0.00 | 0.00 | 0.00 | 76 | 1009.4 |
| 20260830161018 | 81 | 72 | 5.0 | 13.0 | 0.00 | 0.00 | 0.00 | 75 | 1009.3 |
| 20260830160519 | 81 | 82 | 6.0 | 13.0 | 0.00 | 0.00 | 0.00 | 75 | 1009.2 |
| 20260830160043 | 81 | 68 | 3.0 | 10.0 | 0.00 | 0.00 | 0.00 | 75 | 1009.2 |
| 20260830155519 | 81 | 74 | 5.0 | 10.0 | 0.00 | 0.00 | 0.00 | 75 | 1009.3 |
| 20260830155019 | 81 | 75 | 4.0 | 8.0 | 0.00 | 0.00 | 0.00 | 77 | 1009.2 |
| 20260830154538 | 80 | 68 | 4.0 | 8.0 | 0.00 | 0.00 | 0.00 | 77 | 1009.2 |
| 20260830154023 | 80 | 69 | 2.0 | 8.0 | 0.00 | 0.00 | 0.00 | 77 | 1009.4 |
| 20260830153521 | 80 | 68 | 3.0 | 8.0 | 0.00 | 0.00 | 0.00 | 78 | 1009.5 |
| 20260830153038 | 80 | 64 | 4.0 | 8.0 | 0.00 | 0.00 | 0.00 | 77 | 1009.2 |
| 20260830152521 | 80 | 76 | 3.0 | 6.0 | 0.00 | 0.00 | 0.00 | 77 | 1009.1 |
| 20260830152018 | 79 | 76 | 3.0 | 8.0 | 0.00 | 0.00 | 0.00 | 79 | 1009.2 |
| 20260830151539 | 79 | 72 | 3.0 | 8.0 | 0.00 | 0.00 | 0.00 | 79 | 1009.3 |
| 20260830151021 | 79 | 70 | 5.0 | 8.0 | 0.00 | 0.00 | 0.00 | 79 | 1009.4 |
| 20260830150519 | 78 | 76 | 4.0 | 8.0 | 0.00 | 0.00 | 0.00 | 80 | 1009.1 |
| 20260830150044 | 78 | 70 | 4.0 | 7.0 | 0.00 | 0.00 | 0.00 | 81 | 1009.1 |
| 20260830145519 | 78 | 76 | 2.0 | 4.0 | 0.00 | 0.00 | 0.00 | 82 | 1009.3 |
| 20260830145021 | 78 | 74 | 2.0 | 4.0 | 0.00 | 0.00 | 0.00 | 80 | 1009.4 |
| 20260830144537 | 78 | 72 | 3.0 | 6.0 | 0.00 | 0.00 | 0.00 | 80 | 1009.3 |
| 20260830144019 | 78 | 62 | 2.0 | 6.0 | 0.00 | 0.00 | 0.00 | 79 | 1009.3 |
| 20260830143522 | 77 | 63 | 3.0 | 7.0 | 0.00 | 0.00 | 0.00 | 81 | 1009.5 |
| 20260830143045 | 77 | 68 | 2.0 | 7.0 | 0.00 | 0.00 | 0.00 | 82 | 1009.6 |
| 20260830142521 | 76 | 74 | 3.0 | 6.0 | 0.00 | 0.00 | 0.00 | 85 | 1009.6 |
| 20260830142021 | 75 | 75 | 3.0 | 5.0 | 0.00 | 0.00 | 0.00 | 87 | 1009.6 |
| 20260830141543 | 74 | 70 | 2.0 | 4.0 | 0.00 | 0.00 | 0.00 | 88 | 1009.6 |
| 20260830141020 | 73 | 70 | 2.0 | 8.0 | 0.00 | 0.00 | 0.00 | 88 | 1009.6 |
| 20260830140521 | 73 | 68 | 2.0 | 8.0 | 0.00 | 0.00 | 0.00 | 87 | 1009.5 |
| 20260830140043 | 72 | 66 | 4.0 | 8.0 | 0.00 | 0.00 | 0.00 | 88 | 1009.5 |
| 20260830135518 | 71 | 68 | 4.0 | 8.0 | 0.00 | 0.13 | 0.00 | 89 | 1009.5 |
| 20260830135020 | 71 | 64 | 4.0 | 8.0 | 0.00 | 0.13 | 0.00 | 90 | 1009.4 |
| 20260830134542 | 70 | 76 | 4.0 | 7.0 | 0.00 | 0.13 | 0.00 | 90 | 1009.4 |
| 20260830134020 | 70 | 71 | 2.0 | 7.0 | 0.00 | 0.13 | 0.00 | 91 | 1009.4 |
| 20260830133519 | 70 | 67 | 3.0 | 7.0 | 0.00 | 0.13 | 0.00 | 91 | 1009.4 |
| 20260830133041 | 69 | 71 | 2.0 | 7.0 | 0.00 | 0.13 | 0.00 | 91 | 1009.4 |
| 20260830132519 | 69 | 67 | 3.0 | 7.0 | 0.00 | 0.13 | 0.00 | 91 | 1009.4 |
| 20260830132021 | 69 | 75 | 3.0 | 7.0 | 0.00 | 0.13 | 0.00 | 91 | 1009.6 |
| 20260830131541 | 69 | 72 | 3.0 | 7.0 | 0.00 | 0.13 | 0.00 | 91 | 1009.5 |
| 20260830131020 | 69 | 68 | 3.0 | 7.0 | 0.00 | 0.13 | 0.00 | 91 | 1009.6 |
| 20260830130524 | 69 | 70 | 1.0 | 4.0 | 0.00 | 0.13 | 0.00 | 92 | 1009.7 |
| 20260830130043 | 69 | 70 | 0.0 | 4.0 | 0.00 | 0.13 | 0.00 | 92 | 1009.9 |
| 20260830125523 | 68 | 68 | 1.0 | 4.0 | 0.00 | 0.26 | 0.00 | 92 | 1009.9 |
| 20260830125025 | 68 | 0 | 1.0 | 5.0 | 0.00 | 0.26 | 0.00 | 92 | 1009.8 |
| 20260830124544 | 68 | 68 | 1.0 | 5.0 | 0.00 | 0.26 | 0.00 | 92 | 1009.6 |
| 20260830124028 | 68 | 68 | 3.0 | 5.0 | 0.00 | 0.26 | 0.00 | 92 | 1009.5 |
| 20260830123520 | 68 | 69 | 2.0 | 4.0 | 0.00 | 0.26 | 0.00 | 91 | 1009.6 |
| 20260830123042 | 68 | 67 | 1.0 | 4.0 | 0.00 | 0.26 | 0.00 | 91 | 1009.6 |
| 20260830122519 | 68 | 68 | 1.0 | 4.0 | 0.00 | 0.26 | 0.00 | 91 | 1009.6 |
| 20260830122019 | 68 | 68 | 1.0 | 4.0 | 0.00 | 0.26 | 0.00 | 91 | 1009.4 |
| 20260830121541 | 68 | 0 | 0.0 | 4.0 | 0.00 | 0.26 | 0.00 | 91 | 1009.5 |
| 20260830121024 | 68 | 68 | 1.0 | 4.0 | 0.00 | 0.26 | 0.00 | 91 | 1009.2 |
| 20260830120525 | 68 | 67 | 1.0 | 4.0 | 0.00 | 0.26 | 0.00 | 91 | 1009.1 |
| 20260830120040 | 68 | 68 | 1.0 | 4.0 | 0.00 | 0.26 | 0.00 | 91 | 1009.1 |
| 20260830115524 | 68 | 67 | 1.0 | 4.0 | 0.00 | 0.33 | 0.00 | 91 | 1009.1 |
| 20260830115024 | 68 | 0 | 1.0 | 3.0 | 0.00 | 0.33 | 0.00 | 91 | 1009.1 |
| 20260830114540 | 68 | 68 | 1.0 | 2.0 | 0.00 | 0.33 | 0.00 | 91 | 1009.1 |
| 20260830114023 | 68 | 0 | 0.0 | 4.0 | 0.00 | 0.33 | 0.00 | 91 | 1009.1 |
| 20260830113519 | 68 | 68 | 1.0 | 4.0 | 0.00 | 0.33 | 0.00 | 91 | 1009.0 |
| 20260830113043 | 68 | 68 | 1.0 | 5.0 | 0.00 | 0.33 | 0.00 | 91 | 1009.0 |
| 20260830112523 | 68 | 68 | 3.0 | 5.0 | 0.00 | 0.33 | 0.00 | 91 | 1009.1 |
| 20260830112019 | 68 | 66 | 2.0 | 5.0 | 0.00 | 0.33 | 0.00 | 91 | 1009.3 |
| 20260830111539 | 68 | 68 | 2.0 | 5.0 | 0.00 | 0.33 | 0.00 | 91 | 1009.3 |
| 20260830111021 | 68 | 65 | 2.0 | 4.0 | 0.00 | 0.33 | 0.00 | 91 | 1009.3 |
| 20260830110525 | 68 | 68 | 2.0 | 4.0 | 0.00 | 0.33 | 0.00 | 91 | 1009.4 |
| 20260830110041 | 68 | 67 | 2.0 | 4.0 | 0.00 | 0.33 | 0.00 | 91 | 1009.4 |
| 20260830105524 | 68 | 65 | 0.0 | 2.0 | 0.00 | 0.35 | 0.00 | 91 | 1009.4 |
| 20260830105020 | 68 | 65 | 0.0 | 2.0 | 0.00 | 0.35 | 0.00 | 91 | 1009.4 |
| 20260830104601 | 68 | 0 | 0.0 | 2.0 | 0.00 | 0.35 | 0.00 | 91 | 1009.5 |
| 20260830104019 | 68 | 65 | 0.0 | 2.0 | 0.00 | 0.35 | 0.00 | 91 | 1009.4 |
| 20260830103521 | 68 | 0 | 0.0 | 3.0 | 0.00 | 0.35 | 0.00 | 91 | 1009.5 |
| 20260830103040 | 68 | 65 | 0.0 | 4.0 | 0.00 | 0.35 | 0.00 | 90 | 1009.4 |
| 20260830102519 | 68 | 66 | 1.0 | 4.0 | 0.00 | 0.35 | 0.00 | 90 | 1009.3 |
| 20260830102019 | 68 | 0 | 0.0 | 2.0 | 0.00 | 0.35 | 0.00 | 90 | 1009.3 |
| 20260830101538 | 68 | 0 | 0.0 | 3.0 | 0.00 | 0.35 | 0.00 | 91 | 1009.3 |
| 20260830101024 | 68 | 0 | 0.0 | 3.0 | 0.00 | 0.35 | 0.00 | 91 | 1009.2 |
| 20260830100523 | 68 | 66 | 0.0 | 4.0 | 0.00 | 0.35 | 0.00 | 91 | 1009.1 |
| 20260830100038 | 68 | 0 | 0.0 | 4.0 | 0.00 | 0.35 | 0.00 | 91 | 1009.1 |
| 20260830095523 | 68 | 66 | 2.0 | 7.0 | 0.00 | 0.37 | 0.00 | 91 | 1009.0 |
| 20260830095020 | 68 | 65 | 2.0 | 7.0 | 0.00 | 0.37 | 0.00 | 91 | 1008.9 |
| 20260830094543 | 68 | 69 | 1.0 | 4.0 | 0.00 | 0.37 | 0.00 | 91 | 1008.9 |
| 20260830094022 | 68 | 69 | 1.0 | 4.0 | 0.00 | 0.37 | 0.00 | 91 | 1009.1 |
| 20260830093520 | 68 | 0 | 0.0 | 4.0 | 0.00 | 0.37 | 0.00 | 91 | 1009.2 |
| 20260830093042 | 68 | 69 | 2.0 | 4.0 | 0.00 | 0.37 | 0.00 | 91 | 1009.2 |
| 20260830092527 | 68 | 69 | 1.0 | 4.0 | 0.00 | 0.37 | 0.00 | 91 | 1009.3 |
| 20260830092025 | 68 | 69 | 2.0 | 4.0 | 0.00 | 0.37 | 0.00 | 91 | 1009.1 |
| 20260830091546 | 68 | 68 | 1.0 | 4.0 | 0.00 | 0.37 | 0.00 | 91 | 1009.2 |
| 20260830091025 | 68 | 68 | 2.0 | 4.0 | 0.00 | 0.37 | 0.00 | 91 | 1009.3 |
| 20260830090524 | 68 | 67 | 2.0 | 4.0 | 0.00 | 0.37 | 0.00 | 91 | 1009.3 |
| 20260830090045 | 68 | 67 | 1.0 | 3.0 | 0.00 | 0.37 | 0.00 | 90 | 1009.4 |
| 20260830085524 | 68 | 68 | 2.0 | 3.0 | 0.00 | 0.38 | 0.00 | 90 | 1009.4 |
| 20260830085027 | 68 | 0 | 0.0 | 3.0 | 0.00 | 0.38 | 0.00 | 90 | 1009.5 |
| 20260830084538 | 68 | 0 | 0.0 | 3.0 | 0.00 | 0.38 | 0.00 | 90 | 1009.3 |
| 20260830084024 | 68 | 68 | 1.0 | 3.0 | 0.00 | 0.38 | 0.00 | 90 | 1009.1 |
| 20260830083524 | 68 | 68 | 1.0 | 3.0 | 0.00 | 0.38 | 0.00 | 90 | 1009.0 |
| 20260830083057 | 68 | 0 | 0.0 | 4.0 | 0.00 | 0.38 | 0.00 | 90 | 1009.2 |
| 20260830082518 | 68 | 68 | 2.0 | 4.0 | 0.00 | 0.38 | 0.00 | 90 | 1009.1 |
| 20260830082024 | 68 | 67 | 1.0 | 3.0 | 0.00 | 0.38 | 0.00 | 90 | 1009.1 |
| 20260830081541 | 68 | 66 | 2.0 | 3.0 | 0.00 | 0.38 | 0.00 | 90 | 1009.2 |
| 20260830081019 | 69 | 67 | 1.0 | 3.0 | 0.00 | 0.38 | 0.00 | 90 | 1009.3 |
| 20260830080519 | 69 | 0 | 0.0 | 0.0 | 0.00 | 0.38 | 0.00 | 90 | 1009.4 |
| 20260830080039 | 69 | 0 | 0.0 | 3.0 | 0.00 | 0.38 | 0.00 | 90 | 1009.5 |
| 20260830075519 | 69 | 0 | 0.0 | 4.0 | 0.00 | 0.38 | 0.00 | 90 | 1009.5 |
| 20260830075018 | 69 | 67 | 1.0 | 5.0 | 0.00 | 0.38 | 0.00 | 91 | 1009.4 |
| 20260830074538 | 69 | 66 | 2.0 | 5.0 | 0.00 | 0.38 | 0.00 | 90 | 1009.5 |
| 20260830074024 | 69 | 68 | 3.0 | 5.0 | 0.00 | 0.38 | 0.00 | 90 | 1009.6 |
| 20260830073527 | 69 | 68 | 2.0 | 4.0 | 0.00 | 0.38 | 0.00 | 90 | 1009.8 |
| 20260830073040 | 68 | 66 | 2.0 | 4.0 | 0.00 | 0.38 | 0.00 | 90 | 1009.8 |
| 20260830072521 | 68 | 66 | 2.0 | 5.0 | 0.00 | 0.38 | 0.00 | 90 | 1009.6 |
| 20260830072021 | 68 | 65 | 2.0 | 5.0 | 0.00 | 0.38 | 0.00 | 91 | 1009.6 |
| 20260830071543 | 68 | 66 | 2.0 | 5.0 | 0.00 | 0.38 | 0.00 | 91 | 1009.5 |
| 20260830071020 | 68 | 68 | 2.0 | 5.0 | 0.00 | 0.38 | 0.00 | 90 | 1009.5 |
| 20260830070520 | 68 | 75 | 2.0 | 5.0 | 0.00 | 0.38 | 0.00 | 91 | 1009.6 |
| 20260830070041 | 68 | 70 | 2.0 | 5.0 | 0.00 | 0.38 | 0.00 | 91 | 1009.7 |
| 20260830065519 | 68 | 69 | 3.0 | 5.0 | 0.00 | 0.38 | 0.00 | 91 | 1009.6 |
| 20260830065016 | 68 | 71 | 3.0 | 5.0 | 0.00 | 0.38 | 0.00 | 91 | 1009.6 |
| 20260830064541 | 68 | 70 | 1.0 | 4.0 | 0.00 | 0.38 | 0.00 | 91 | 1009.7 |
| 20260830064021 | 68 | 0 | 0.0 | 1.0 | 0.00 | 0.38 | 0.00 | 91 | 1010.0 |
| 20260830063521 | 68 | 0 | 0.0 | 0.0 | 0.00 | 0.38 | 0.00 | 91 | 1010.0 |
| 20260830063056 | 68 | 0 | 0.0 | 0.0 | 0.00 | 0.38 | 0.00 | 90 | 1010.0 |
| 20260830062520 | 68 | 0 | 0.0 | 0.0 | 0.00 | 0.38 | 0.00 | 90 | 1010.0 |
| 20260830062019 | 68 | 0 | 0.0 | 0.0 | 0.00 | 0.38 | 0.00 | 90 | 1010.1 |
| 20260830061544 | 68 | 0 | 0.0 | 0.0 | 0.00 | 0.38 | 0.00 | 90 | 1010.1 |
| 20260830061022 | 68 | 0 | 0.0 | 0.0 | 0.00 | 0.38 | 0.00 | 90 | 1010.1 |
| 20260830060519 | 68 | 0 | 0.0 | 0.0 | 0.00 | 0.38 | 0.00 | 90 | 1010.1 |
| 20260830060046 | 69 | 0 | 0.0 | 1.0 | 0.00 | 0.38 | 0.00 | 90 | 1010.2 |
| 20260830055519 | 69 | 0 | 0.0 | 1.0 | 0.00 | 0.38 | 0.00 | 90 | 1010.1 |
| 20260830055021 | 69 | 0 | 0.0 | 2.0 | 0.00 | 0.38 | 0.00 | 90 | 1010.0 |
| 20260830054543 | 69 | 0 | 0.0 | 2.0 | 0.00 | 0.38 | 0.00 | 90 | 1010.1 |
| 20260830054021 | 69 | 0 | 0.0 | 2.0 | 0.00 | 0.38 | 0.00 | 90 | 1010.1 |
| 20260830053519 | 69 | 0 | 0.0 | 2.0 | 0.00 | 0.38 | 0.00 | 90 | 1010.1 |
| 20260830053045 | 69 | 0 | 0.0 | 2.0 | 0.00 | 0.38 | 0.00 | 89 | 1010.1 |
| 20260830052520 | 69 | 0 | 0.0 | 2.0 | 0.00 | 0.38 | 0.00 | 89 | 1010.0 |
| 20260830052020 | 69 | 0 | 0.0 | 0.0 | 0.00 | 0.38 | 0.00 | 90 | 1010.1 |
| 20260830051541 | 69 | 0 | 0.0 | 0.0 | 0.00 | 0.38 | 0.00 | 89 | 1010.1 |
| 20260830051020 | 69 | 0 | 0.0 | 1.0 | 0.00 | 0.38 | 0.00 | 89 | 1010.2 |
| 20260830050519 | 70 | 0 | 0.0 | 1.0 | 0.00 | 0.38 | 0.00 | 89 | 1010.3 |
| 20260830050041 | 70 | 0 | 0.0 | 1.0 | 0.00 | 0.38 | 0.00 | 89 | 1010.3 |
| 20260830045522 | 70 | 0 | 0.0 | 3.0 | 0.00 | 0.38 | 0.38 | 89 | 1010.6 |
| 20260830045024 | 70 | 0 | 0.0 | 3.0 | 0.00 | 0.38 | 0.38 | 88 | 1010.4 |
| 20260830044542 | 70 | 0 | 1.0 | 3.0 | 0.00 | 0.38 | 0.38 | 88 | 1010.4 |
| 20260830044021 | 70 | 0 | 0.0 | 0.0 | 0.00 | 0.38 | 0.38 | 88 | 1010.6 |
| 20260830043520 | 70 | 0 | 0.0 | 0.0 | 0.00 | 0.38 | 0.38 | 88 | 1010.6 |
| 20260830043041 | 70 | 0 | 0.0 | 0.0 | 0.00 | 0.38 | 0.38 | 88 | 1010.7 |
| 20260830042519 | 70 | 0 | 0.0 | 0.0 | 0.00 | 0.38 | 0.38 | 88 | 1010.7 |
| 20260830042026 | 70 | 0 | 0.0 | 0.0 | 0.00 | 0.38 | 0.38 | 88 | 1010.7 |
| 20260830041548 | 70 | 0 | 0.0 | 0.0 | 0.00 | 0.38 | 0.38 | 88 | 1010.7 |
| 20260830041021 | 70 | 0 | 0.0 | 0.0 | 0.00 | 0.38 | 0.38 | 88 | 1010.7 |
| 20260830040521 | 71 | 0 | 0.0 | 0.0 | 0.00 | 0.38 | 0.38 | 88 | 1010.8 |
| 20260830040044 | 71 | 0 | 0.0 | 0.0 | 0.00 | 0.38 | 0.38 | 88 | 1010.8 |
| 20260830035521 | 71 | 0 | 0.0 | 0.0 | 0.00 | 0.38 | 0.38 | 88 | 1010.8 |
| 20260830035021 | 71 | 0 | 0.0 | 0.0 | 0.00 | 0.38 | 0.38 | 88 | 1010.8 |
| 20260830034547 | 71 | 0 | 0.0 | 0.0 | 0.00 | 0.38 | 0.38 | 88 | 1010.8 |
| 20260830034020 | 71 | 0 | 0.0 | 0.0 | 0.00 | 0.38 | 0.38 | 87 | 1010.9 |
| 20260830033518 | 71 | 0 | 0.0 | 0.0 | 0.00 | 0.38 | 0.38 | 87 | 1010.9 |
| 20260830033042 | 71 | 0 | 0.0 | 0.0 | 0.00 | 0.38 | 0.38 | 87 | 1011.0 |
| 20260830032524 | 71 | 0 | 0.0 | 0.0 | 0.00 | 0.38 | 0.38 | 87 | 1011.0 |
| 20260830032024 | 71 | 0 | 0.0 | 0.0 | 0.00 | 0.38 | 0.38 | 86 | 1010.8 |
| 20260830031541 | 71 | 0 | 0.0 | 0.0 | 0.00 | 0.38 | 0.38 | 86 | 1010.9 |
| 20260830031027 | 71 | 0 | 0.0 | 0.0 | 0.00 | 0.38 | 0.38 | 87 | 1010.9 |
| 20260830030524 | 71 | 0 | 0.0 | 0.0 | 0.00 | 0.38 | 0.38 | 86 | 1010.8 |
| 20260830030044 | 71 | 0 | 0.0 | 0.0 | 0.00 | 0.38 | 0.38 | 86 | 1010.8 |
| 20260830025521 | 71 | 0 | 0.0 | 1.0 | 0.00 | 0.38 | 0.38 | 86 | 1010.7 |
| 20260830025023 | 72 | 0 | 0.0 | 1.0 | 0.00 | 0.38 | 0.38 | 86 | 1010.7 |
| 20260830024541 | 72 | 0 | 0.0 | 0.0 | 0.00 | 0.38 | 0.38 | 86 | 1010.6 |
| 20260830024020 | 72 | 0 | 0.0 | 2.0 | 0.00 | 0.38 | 0.38 | 86 | 1010.7 |
| 20260830023520 | 72 | 0 | 0.0 | 2.0 | 0.00 | 0.38 | 0.38 | 86 | 1010.7 |
| 20260830023042 | 72 | 0 | 0.0 | 2.0 | 0.00 | 0.38 | 0.38 | 85 | 1010.6 |
| 20260830022523 | 72 | 70 | 0.0 | 2.0 | 0.00 | 0.38 | 0.38 | 85 | 1010.6 |